This is the latest recevied weather packets stored in our database for station/object 9M2ABD-1. If no packets are shown the sender has not sent any weather packets the latest 10 day(s).
| Time | Temp. | Humidity | Pressure | Rain* | Wind** | Luminosity | Snow |
|---|---|---|---|---|---|---|---|
| 1777717178 | 30.56° C | 72% | 1006.8 hPa | - | - | - | - |
| 1777715978 | 31.11° C | 70% | 1006.8 hPa | - | - | - | - |
| 1777714778 | 31.11° C | 71% | 1007 hPa | - | - | - | - |
| 1777713578 | 31.11° C | 70% | 1006.7 hPa | - | - | - | - |
| 1777712378 | 31.11° C | 71% | 1007.4 hPa | - | - | - | - |
| 1777711178 | 31.67° C | 71% | 1007.2 hPa | - | - | - | - |
| 1777709978 | 32.22° C | 69% | 1006.9 hPa | - | - | - | - |
| 1777708778 | 32.22° C | 70% | 1006.8 hPa | - | - | - | - |
| 1777707577 | 32.22° C | 70% | 1007.2 hPa | - | - | - | - |
| 1777706377 | 31.67° C | 70% | 1007.3 hPa | - | - | - | - |
| 1777705177 | 31.67° C | 70% | 1007.7 hPa | - | - | - | - |
| 1777703977 | 31.67° C | 72% | 1008.3 hPa | - | - | - | - |
| 1777702777 | 31.67° C | 71% | 1008.3 hPa | - | - | - | - |
| 1777701577 | 31.67° C | 72% | 1008.8 hPa | - | - | - | - |
| 1777700377 | 31.67° C | 72% | 1008.9 hPa | - | - | - | - |
| 1777699177 | 31.11° C | 73% | 1009.2 hPa | - | - | - | - |
| 1777697977 | 31.11° C | 74% | 1009.8 hPa | - | - | - | - |
| 1777696777 | 31.11° C | 74% | 1010.1 hPa | - | - | - | - |
| 1777695576 | 31.11° C | 74% | 1010.5 hPa | - | - | - | - |
| 1777694376 | 30.56° C | 74% | 1010.6 hPa | - | - | - | - |
| 1777693176 | 30.56° C | 75% | 1010.9 hPa | - | - | - | - |
| 1777691976 | 30° C | 76% | 1011.1 hPa | - | - | - | - |
| 1777690776 | 30° C | 77% | 1011.2 hPa | - | - | - | - |
| 1777689576 | 30° C | 77% | 1011.2 hPa | - | - | - | - |
| 1777688375 | 29.44° C | 77% | 1011 hPa | - | - | - | - |
* Rain since midnight (hover to see other rain measurements)
** Current wind speed in m/s (hover to see current wind gust speed)